| time (UTC) | temp F | wind direction | speed MPH | gust MPH | rain 1hr in | rain 24hr in | rain mn in | humidity % | barometer mb |
| 20260906173052 | 70 | 119 | 3.0 | 5.0 | 0.00 | 0.02 | 0.01 | 91 | 1019.0 |
| 20260906171556 | 70 | 82 | 4.0 | 6.0 | 0.00 | 0.02 | 0.01 | 91 | 1019.1 |
| 20260906170059 | 70 | 93 | 2.0 | 6.0 | 0.00 | 0.02 | 0.01 | 92 | 1019.4 |
| 20260906164559 | 70 | 116 | 1.0 | 6.0 | 0.00 | 0.02 | 0.01 | 92 | 1019.5 |
| 20260906163100 | 70 | 103 | 3.0 | 8.0 | 0.00 | 0.02 | 0.01 | 91 | 1019.3 |
| 20260906161559 | 70 | 94 | 4.0 | 8.0 | 0.00 | 0.02 | 0.01 | 91 | 1019.2 |
| 20260906160053 | 70 | 91 | 5.0 | 9.0 | 0.00 | 0.02 | 0.01 | 91 | 1019.1 |
| 20260906154557 | 70 | 100 | 5.0 | 11.0 | 0.00 | 0.02 | 0.01 | 92 | 1019.0 |
| 20260906153057 | 69 | 107 | 7.0 | 11.0 | 0.00 | 0.02 | 0.01 | 93 | 1018.9 |
| 20260906151601 | 68 | 54 | 5.0 | 9.0 | 0.00 | 0.02 | 0.01 | 94 | 1019.2 |
| 20260906150054 | 68 | 143 | 5.0 | 9.0 | 0.00 | 0.02 | 0.01 | 94 | 1019.2 |
| 20260906144552 | 68 | 96 | 4.0 | 9.0 | 0.00 | 0.02 | 0.01 | 95 | 1019.1 |
| 20260906143050 | 68 | 92 | 4.0 | 9.0 | 0.00 | 0.02 | 0.01 | 95 | 1019.1 |
| 20260906141545 | 68 | 77 | 5.0 | 11.0 | 0.00 | 0.02 | 0.01 | 95 | 1019.2 |
| 20260906140055 | 68 | 126 | 5.0 | 9.0 | 0.00 | 0.02 | 0.01 | 96 | 1019.1 |
| 20260906134551 | 68 | 132 | 5.0 | 8.0 | 0.00 | 0.02 | 0.01 | 96 | 1019.4 |
| 20260906133053 | 67 | 104 | 4.0 | 8.0 | 0.00 | 0.02 | 0.01 | 97 | 1019.4 |
| 20260906131547 | 67 | 96 | 4.0 | 10.0 | 0.00 | 0.02 | 0.01 | 97 | 1019.1 |
| 20260906124553 | 67 | 103 | 4.0 | 9.0 | 0.00 | 0.02 | 0.01 | 98 | 1018.6 |
| 20260906123051 | 67 | 111 | 4.0 | 10.0 | 0.01 | 0.02 | 0.01 | 98 | 1018.3 |
| 20260906121555 | 66 | 89 | 5.0 | 8.0 | 0.01 | 0.02 | 0.01 | 98 | 1018.0 |
| 20260906120110 | 66 | 107 | 4.0 | 7.0 | 0.01 | 0.02 | 0.01 | 98 | 1017.9 |
| 20260906114601 | 66 | 82 | 3.0 | 7.0 | 0.01 | 0.02 | 0.01 | 98 | 1017.8 |
| 20260906113102 | 66 | 94 | 2.0 | 6.0 | 0.00 | 0.01 | 0.00 | 98 | 1017.8 |
| 20260906111604 | 65 | 92 | 2.0 | 4.0 | 0.00 | 0.01 | 0.00 | 97 | 1017.9 |
| 20260906110052 | 65 | 94 | 1.0 | 2.0 | 0.00 | 0.01 | 0.00 | 97 | 1017.9 |
| 20260906104600 | 64 | 73 | 0.0 | 1.0 | 0.00 | 0.01 | 0.00 | 97 | 1018.0 |
| 20260906103102 | 64 | 0 | 0.0 | 1.0 | 0.00 | 0.01 | 0.00 | 97 | 1018.0 |
| 20260906101600 | 64 | 0 | 0.0 | 1.0 | 0.00 | 0.01 | 0.00 | 97 | 1017.7 |
| 20260906100053 | 64 | 105 | 0.0 | 1.0 | 0.00 | 0.01 | 0.00 | 97 | 1017.4 |
| 20260906094553 | 64 | 0 | 0.0 | 0.0 | 0.00 | 0.01 | 0.00 | 97 | 1017.4 |
| 20260906093057 | 64 | 0 | 0.0 | 0.0 | 0.00 | 0.01 | 0.00 | 97 | 1017.5 |
| 20260906091553 | 64 | 0 | 0.0 | 1.0 | 0.00 | 0.01 | 0.00 | 97 | 1017.4 |
| 20260906090056 | 65 | 0 | 0.0 | 1.0 | 0.00 | 0.01 | 0.00 | 96 | 1017.3 |
| 20260906084553 | 65 | 0 | 0.0 | 1.0 | 0.00 | 0.01 | 0.00 | 96 | 1017.1 |
| 20260906083100 | 66 | 0 | 0.0 | 2.0 | 0.00 | 0.01 | 0.00 | 96 | 1016.8 |
| 20260906081553 | 66 | 80 | 0.0 | 2.0 | 0.00 | 0.01 | 0.00 | 96 | 1016.8 |
| 20260906080059 | 66 | 0 | 0.0 | 3.0 | 0.00 | 0.01 | 0.00 | 96 | 1017.0 |
| 20260906074602 | 67 | 91 | 0.0 | 3.0 | 0.00 | 0.01 | 0.00 | 96 | 1016.9 |
| 20260906073055 | 67 | 79 | 1.0 | 5.0 | 0.00 | 0.01 | 0.00 | 96 | 1017.1 |
| 20260906071559 | 67 | 79 | 0.0 | 3.0 | 0.00 | 0.01 | 0.00 | 96 | 1017.3 |
| 20260906070059 | 68 | 75 | 1.0 | 4.0 | 0.00 | 0.01 | 0.00 | 96 | 1017.2 |
| 20260906064552 | 67 | 68 | 0.0 | 3.0 | 0.00 | 0.01 | 0.00 | 96 | 1017.4 |
| 20260906063057 | 68 | 0 | 0.0 | 2.0 | 0.00 | 0.01 | 0.00 | 95 | 1017.5 |
| 20260906061556 | 68 | 88 | 0.0 | 2.0 | 0.00 | 0.01 | 0.00 | 95 | 1017.4 |
| 20260906060058 | 69 | 0 | 1.0 | 4.0 | 0.00 | 0.01 | 0.00 | 95 | 1017.5 |
| 20260906054552 | 69 | 82 | 1.0 | 4.0 | 0.00 | 0.01 | 0.00 | 95 | 1017.5 |
| 20260906053053 | 70 | 75 | 1.0 | 7.0 | 0.00 | 0.01 | 0.00 | 95 | 1017.6 |
| 20260906051557 | 70 | 66 | 2.0 | 7.0 | 0.00 | 0.01 | 0.00 | 95 | 1017.4 |
| 20260906050059 | 70 | 75 | 2.0 | 5.0 | 0.00 | 0.01 | 0.00 | 96 | 1017.3 |
| 20260906044553 | 70 | 62 | 1.0 | 5.0 | 0.00 | 0.01 | 0.01 | 96 | 1017.4 |
| 20260906043046 | 70 | 48 | 2.0 | 3.0 | 0.00 | 0.01 | 0.01 | 96 | 1017.1 |
| 20260906041602 | 70 | 51 | 1.0 | 4.0 | 0.00 | 0.01 | 0.01 | 96 | 1017.2 |
| 20260906040054 | 70 | 55 | 0.0 | 2.0 | 0.00 | 0.01 | 0.01 | 95 | 1017.1 |
| 20260906034551 | 70 | 0 | 0.0 | 1.0 | 0.00 | 0.01 | 0.01 | 95 | 1017.0 |
| 20260906033048 | 71 | 340 | 0.0 | 1.0 | 0.00 | 0.01 | 0.01 | 96 | 1017.1 |
| 20260906031556 | 71 | 0 | 0.0 | 2.0 | 0.00 | 0.01 | 0.01 | 95 | 1017.0 |
| 20260906030053 | 71 | 0 | 0.0 | 1.0 | 0.00 | 0.01 | 0.01 | 95 | 1017.1 |
| 20260906024601 | 71 | 0 | 0.0 | 1.0 | 0.00 | 0.01 | 0.01 | 95 | 1017.1 |
| 20260906023050 | 72 | 0 | 0.0 | 2.0 | 0.00 | 0.01 | 0.01 | 95 | 1016.8 |
| 20260906021559 | 71 | 0 | 0.0 | 1.0 | 0.00 | 0.01 | 0.01 | 95 | 1016.6 |
| 20260906020055 | 72 | 0 | 0.0 | 1.0 | 0.00 | 0.01 | 0.01 | 94 | 1016.6 |
| 20260906014608 | 72 | 0 | 0.0 | 1.0 | 0.00 | 0.01 | 0.01 | 94 | 1016.4 |
| 20260906013051 | 72 | 334 | 0.0 | 1.0 | 0.00 | 0.01 | 0.01 | 94 | 1016.2 |
| 20260906011551 | 73 | 0 | 0.0 | 0.0 | 0.00 | 0.01 | 0.01 | 93 | 1016.1 |
| 20260906010116 | 73 | 0 | 0.0 | 1.0 | 0.00 | 0.01 | 0.01 | 93 | 1016.0 |
| 20260906004600 | 73 | 77 | 1.0 | 2.0 | 0.00 | 0.01 | 0.01 | 92 | 1015.8 |
| 20260906003110 | 74 | 0 | 0.0 | 1.0 | 0.00 | 0.01 | 0.01 | 91 | 1015.9 |
| 20260906001549 | 74 | 77 | 0.0 | 3.0 | 0.00 | 0.01 | 0.01 | 90 | 1015.7 |
| 20260906000053 | 75 | 78 | 1.0 | 3.0 | 0.00 | 0.01 | 0.01 | 89 | 1015.7 |
| 20260905234603 | 76 | 0 | 0.0 | 2.0 | 0.00 | 0.01 | 0.01 | 89 | 1015.6 |
| 20260905233048 | 76 | 75 | 1.0 | 4.0 | 0.00 | 0.01 | 0.01 | 87 | 1015.5 |
| 20260905231559 | 77 | 78 | 1.0 | 3.0 | 0.00 | 0.01 | 0.01 | 86 | 1015.5 |
| 20260905230056 | 77 | 64 | 3.0 | 7.0 | 0.00 | 0.01 | 0.01 | 86 | 1015.2 |
| 20260905224549 | 77 | 114 | 3.0 | 8.0 | 0.00 | 0.01 | 0.01 | 86 | 1015.2 |
| 20260905223057 | 77 | 89 | 4.0 | 7.0 | 0.00 | 0.01 | 0.01 | 85 | 1015.1 |
| 20260905221550 | 77 | 65 | 4.0 | 7.0 | 0.00 | 0.01 | 0.01 | 86 | 1015.1 |
| 20260905220100 | 77 | 84 | 4.0 | 8.0 | 0.00 | 0.01 | 0.01 | 86 | 1015.0 |
| 20260905214552 | 77 | 79 | 5.0 | 10.0 | 0.00 | 0.01 | 0.01 | 85 | 1015.0 |
| 20260905213050 | 77 | 91 | 5.0 | 8.0 | 0.00 | 0.01 | 0.01 | 86 | 1015.1 |
| 20260905211547 | 77 | 117 | 3.0 | 6.0 | 0.00 | 0.01 | 0.01 | 87 | 1015.1 |
| 20260905210055 | 78 | 93 | 5.0 | 11.0 | 0.00 | 0.01 | 0.01 | 86 | 1015.3 |
| 20260905204559 | 78 | 101 | 4.0 | 9.0 | 0.00 | 0.01 | 0.01 | 88 | 1015.1 |
| 20260905203056 | 78 | 82 | 4.0 | 9.0 | 0.00 | 0.01 | 0.01 | 87 | 1015.3 |
| 20260905201546 | 78 | 104 | 4.0 | 8.0 | 0.00 | 0.01 | 0.01 | 87 | 1015.4 |
| 20260905200053 | 78 | 98 | 4.0 | 9.0 | 0.00 | 0.01 | 0.01 | 87 | 1015.1 |
| 20260905194554 | 78 | 101 | 6.0 | 11.0 | 0.00 | 0.01 | 0.01 | 86 | 1015.5 |
| 20260905193106 | 79 | 77 | 5.0 | 14.0 | 0.00 | 0.01 | 0.01 | 88 | 1015.0 |
| 20260905191553 | 78 | 70 | 8.0 | 15.0 | 0.00 | 0.01 | 0.01 | 89 | 1014.7 |
| 20260905184558 | 77 | 84 | 7.0 | 13.0 | 0.00 | 0.01 | 0.01 | 91 | 1015.5 |
| 20260905183056 | 77 | 42 | 6.0 | 9.0 | 0.00 | 0.01 | 0.01 | 91 | 1016.6 |
| 20260905181601 | 76 | 36 | 4.0 | 7.0 | 0.00 | 0.01 | 0.01 | 93 | 1017.1 |
| 20260905180100 | 76 | 53 | 2.0 | 6.0 | 0.01 | 0.01 | 0.01 | 94 | 1017.1 |
| 20260905174552 | 75 | 38 | 2.0 | 5.0 | 0.01 | 0.01 | 0.01 | 95 | 1017.2 |